{"data":{"norad_id":36106,"intl_designator":"2009-067A","name":"INTELSAT 15 (IS-15)","alt_names":[],"object_type":"PAYLOAD","status":"ACTIVE","operator":null,"country":"ITSO","launch_date":"2009-11-30","launch_site_code":"TYMSC","launch_vehicle":null,"mission":null,"orbit_class":"UNKNOWN","rcs_meters":12.5893,"size_class":null,"mass_kg":null,"dimensions":null,"purposes":["comms"],"wikipedia_slug":null,"has_3d_model":false,"image_url":null,"decayed_at":null,"tle_current":{"epoch":"2026-09-20T03:38:10.801824Z","epoch_age_seconds":44867,"freshness":"FRESH","line1":"1 36106U 09067A   26263.15151391 -.00000190  00000+0  00000+0 0  9992","line2":"2 36106   0.0166  97.0011 0002348  85.2520 316.5009  1.00272634 42182","mean_motion":1.00272634,"eccentricity":0.0002348,"inclination_deg":0.0166,"raan_deg":97.0011,"arg_perigee_deg":85.252,"mean_anomaly_deg":316.5009,"bstar":0,"rev_number":4218,"period_min":1436.0847447171,"perigee_km":35776.456734169,"apogee_km":35796.257180532,"semimajor_km":42164.49395735,"source":"CELESTRAK","updated_at":"2026-09-20T09:00:35.518156Z"}}}